TimeCDT,TemperatureF,Dew PointF,Humidity,Sea Level PressureIn,VisibilityMPH,Wind Direction,Wind SpeedMPH,Gust SpeedMPH,PrecipitationIn,Events,Conditions,WindDirDegrees,DateUTC
12:53 AM,30.0,26.1,85,30.33,8.0,Calm,Calm,-,N/A,,Clear,0,2013-03-28 05:53:00
1:53 AM,28.9,25.0,85,30.33,10.0,Calm,Calm,-,N/A,,Partly Cloudy,0,2013-03-28 06:53:00
2:53 AM,28.9,25.0,85,30.32,9.0,Calm,Calm,-,N/A,,Clear,0,2013-03-28 07:53:00
3:53 AM,28.9,25.0,85,30.32,9.0,Calm,Calm,-,N/A,,Partly Cloudy,0,2013-03-28 08:53:00
4:53 AM,28.9,25.0,85,30.31,10.0,Calm,Calm,-,N/A,,Clear,0,2013-03-28 09:53:00
5:53 AM,28.0,25.0,88,30.31,8.0,Calm,Calm,-,N/A,,Clear,0,2013-03-28 10:53:00
6:53 AM,28.0,25.0,88,30.32,8.0,Calm,Calm,-,N/A,,Partly Cloudy,0,2013-03-28 11:53:00
7:53 AM,28.0,25.0,88,30.33,6.0,Calm,Calm,-,N/A,,Clear,0,2013-03-28 12:53:00
8:53 AM,33.1,28.9,85,30.33,8.0,SE,5.8,-,N/A,,Scattered Clouds,130,2013-03-28 13:53:00
9:53 AM,37.9,30.0,73,30.33,10.0,SE,9.2,-,N/A,,Partly Cloudy,140,2013-03-28 14:53:00
10:53 AM,41.0,30.9,67,30.33,10.0,East,6.9,-,N/A,,Mostly Cloudy,100,2013-03-28 15:53:00
11:53 AM,45.0,30.9,58,30.32,10.0,SE,8.1,-,N/A,,Scattered Clouds,140,2013-03-28 16:53:00
12:53 PM,48.0,32.0,54,30.30,10.0,SE,10.4,-,N/A,,Mostly Cloudy,140,2013-03-28 17:53:00
1:53 PM,48.9,33.1,54,30.28,10.0,SE,8.1,-,N/A,,Clear,140,2013-03-28 18:53:00
2:53 PM,51.1,34.0,52,30.26,10.0,SE,10.4,-,N/A,,Clear,140,2013-03-28 19:53:00
3:53 PM,52.0,34.0,50,30.24,10.0,Variable,6.9,-,N/A,,Partly Cloudy,0,2013-03-28 20:53:00
4:53 PM,53.1,34.0,48,30.24,10.0,Variable,4.6,-,N/A,,Clear,0,2013-03-28 21:53:00
5:53 PM,53.1,33.1,47,30.24,10.0,ESE,5.8,-,N/A,,Clear,120,2013-03-28 22:53:00
6:53 PM,48.9,36.0,61,30.25,10.0,East,11.5,-,N/A,,Mostly Cloudy,90,2013-03-28 23:53:00
7:53 PM,45.0,35.1,68,30.26,10.0,East,4.6,-,N/A,,Scattered Clouds,90,2013-03-29 00:53:00
8:53 PM,43.0,34.0,71,30.26,10.0,East,3.5,-,N/A,,Mostly Cloudy,90,2013-03-29 01:53:00
9:53 PM,41.0,33.1,73,30.27,10.0,East,4.6,-,N/A,,Clear,100,2013-03-29 02:53:00
10:53 PM,39.0,32.0,76,30.27,10.0,East,3.5,-,N/A,,Mostly Cloudy,100,2013-03-29 03:53:00
11:53 PM,37.0,30.9,79,30.27,10.0,East,3.5,-,N/A,,Mostly Cloudy,100,2013-03-29 04:53:00